Weather History for York, PA

Change the Weather History Date:

Thursday, October 20, 2011

  Actual Average Record
Temperature  
Mean Temperature 59 °F -  
Max Temperature 66 °F 0 °F 72 °F (2000)
Min Temperature 51 °F - 26 °F (2008)
Degree Days  
Heating Degree Days 6    
Growing Degree Days 9 (Base 50)    
Moisture  
Dew Point 48 °F    
Average Humidity 73    
Maximum Humidity 100    
Minimum Humidity 49    
Precipitation  
Precipitation 0.00 in - - ()
Sea Level Pressure  
Sea Level Pressure 29.44 in    
Wind  
Wind Speed 4 mph (SW)    
Max Wind Speed 13 mph    
Max Gust Speed 24 mph    
Visibility 9 miles    
Events Rain    
Averages and records for this station are not official NWS values.
T = Trace of Precipitation, MM = Missing Value Source: NWS Daily Summary

Daily Weather History Graph

Daily Weather History Graph

Search for Another Location

Airport:

Trip Planner

Search our weather history database for the weather conditions in past years. The results will help you decide how hot, cold, wet, or windy it might be!

Date:

Astronomy

Oct. 20, 2011 Rise Set
Actual Time 7:22 AM EDT 6:21 PM EDT
Civil Twilight 6:55 AM EDT 6:48 PM EDT
Nautical Twilight 6:23 AM EDT 7:20 PM EDT
Astronomical Twilight 5:52 AM EDT 7:51 PM EDT
Moon 12:05 AM EDT (10/20) 2:28 PM EDT (10/20)
Length of Visible Light 11h 53m
Length of Day
10h 58m
Last Quarter, 44% of the Moon is Illuminated
Oct 20
Last Quarter
Oct 26
New
Nov 2
First Quarter
Nov 10
Full
Nov 18
Last Quarter

Hourly Weather History & Observations

Time (EDT) Temp. Dew Point Humidity Pressure Visibility Wind Dir Wind Speed Gust Speed Precip Events Conditions
12:01 AM 62.6 °F 62.6 °F 100% 29.25 in 4.0 mi Calm Calm - 0.00 in Rain Light Rain
12:11 AM 62.6 °F 62.6 °F 100% 29.24 in 3.0 mi Calm Calm - 0.00 in   Overcast
12:26 AM 62.6 °F 62.6 °F 100% 29.24 in 6.0 mi Calm Calm - 0.00 in Rain Light Rain
12:53 AM 64.9 °F 64.0 °F 97% 29.23 in 9.0 mi Calm Calm - 0.00 in   Overcast
1:53 AM 66.0 °F 63.0 °F 90% 29.24 in 10.0 mi Variable 3.5 mph - N/A   Mostly Cloudy
2:53 AM 66.0 °F 62.1 °F 87% 29.25 in 10.0 mi SSW 5.8 mph - N/A   Overcast
3:29 AM 62.6 °F 59.0 °F 88% 29.26 in 10.0 mi WSW 4.6 mph - 0.01 in Rain Light Rain
4:08 AM 59.0 °F 55.4 °F 88% 29.28 in 10.0 mi SW 5.8 mph - N/A   Mostly Cloudy
4:31 AM 57.2 °F 53.6 °F 88% 29.28 in 10.0 mi Calm Calm - N/A   Scattered Clouds
4:53 AM 55.9 °F 53.1 °F 90% 29.29 in 10.0 mi West 3.5 mph - N/A   Clear
6:50 AM 55.4 °F 51.8 °F 88% 29.36 in 10.0 mi SW 4.6 mph - N/A   Overcast
6:53 AM 55.0 °F 51.1 °F 86% 29.36 in 10.0 mi SW 5.8 mph - N/A   Overcast
7:01 AM 53.6 °F 50.0 °F 88% 29.36 in 10.0 mi SW 3.5 mph - N/A   Overcast
7:53 AM 53.1 °F 48.0 °F 83% 29.39 in 10.0 mi SSW 4.6 mph - 0.00 in Rain Light Rain
8:53 AM 53.1 °F 46.0 °F 77% 29.44 in 10.0 mi SSW 4.6 mph - 0.00 in   Overcast
9:53 AM 53.1 °F 45.0 °F 74% 29.46 in 10.0 mi SSW 3.5 mph - N/A   Overcast
10:53 AM 55.9 °F 46.9 °F 72% 29.46 in 10.0 mi SSW 11.5 mph 19.6 mph N/A   Overcast
11:53 AM 57.9 °F 43.0 °F 58% 29.47 in 10.0 mi SSW 8.1 mph 20.7 mph N/A   Scattered Clouds
12:53 PM 57.0 °F 41.0 °F 55% 29.48 in 10.0 mi SW 10.4 mph 24.2 mph N/A   Overcast
1:53 PM 55.9 °F 41.0 °F 57% 29.50 in 10.0 mi SSW 8.1 mph 18.4 mph N/A   Overcast
2:53 PM 59.0 °F 42.1 °F 53% 29.50 in 10.0 mi SSW 10.4 mph 18.4 mph N/A   Overcast
3:53 PM 55.9 °F 39.9 °F 55% 29.53 in 10.0 mi SSW 10.4 mph 16.1 mph N/A   Overcast
4:53 PM 55.9 °F 39.9 °F 55% 29.56 in 10.0 mi SSW 8.1 mph - N/A   Overcast
5:53 PM 55.9 °F 37.0 °F 49% 29.60 in 10.0 mi SW 9.2 mph 17.3 mph N/A   Overcast
6:53 PM 55.0 °F 37.0 °F 51% 29.63 in 10.0 mi SW 8.1 mph 18.4 mph N/A   Overcast
7:53 PM 54.0 °F 37.0 °F 53% 29.67 in 10.0 mi SW 4.6 mph - N/A   Overcast
8:53 PM 53.1 °F 36.0 °F 52% 29.69 in 10.0 mi WSW 6.9 mph - N/A   Overcast
9:53 PM 53.1 °F 35.1 °F 50% 29.72 in 10.0 mi SW 11.5 mph 17.3 mph N/A   Overcast
10:53 PM 52.0 °F 36.0 °F 54% 29.75 in 10.0 mi WSW 9.2 mph 18.4 mph N/A   Mostly Cloudy
11:53 PM 51.1 °F 36.0 °F 56% 29.76 in 10.0 mi WSW 12.7 mph 23.0 mph N/A   Partly Cloudy